Location: Grand Rapids
(42.9630°N, 85.6680°W)
Time: 02:26:36
(UTC-04:00)

S-56A Canister/Altair - Pass Details

Date: 07 June 2024
Orbit: 637 x 2489 km, 38.9° (Epoch: 21 June)

Event Time Altitude Azimuth Distance (km) Brightness Sun altitude
Rises 04:02:05 0° 248° (WSW) 5,828 - -16.7°
Reaches altitude 10° 04:05:41 10° 246° (WSW) 4,959 - -16.3°
Exits shadow 04:06:10 12° 246° (WSW) 4,845 11.1 -16.3°
Maximum altitude 04:20:22 70° 167° (SSE) 2,585 10.0 -14.8°
Drops below altitude 10° 04:34:12 10° 87° (E) 4,704 12.2 -13.2°
Sets 04:37:32 0° 86° (E) 5,524 12.6 -12.8°
